Wind_Speed
26 35 36 33 28 23 26 30 31 37 42 41 42 43 44 43 42 41 41 39 38 39 39 37 35 35 33 31 29 24 20 14 8 8 8 9 8 9 16 17 14 11 9 8 10 9 6 6 6 11 12 9 6 4 6 4 2 3 3 3 1 3 3 5 7 6 3 3 5 5 5 9 5 2 2 2 4 3 2 3 3 2 2 2 2 4 19 25
21 30 36 35 33 26 22 30 32 32 38 41 42 42 44 44 43 42 41 40 38 38 39 37 35 34 32 30 28 24 20 12 4 5 12 13 10 9 13 13 11 9 8 9 11 12 7 6 6 9 7 4 3 5 4 3 3 3 3 1 3 4 4 5 7 6 3 2 4 5 4 6 6 5 4 2 1 2 4 4 3 3 3 2 3 15 23 24
18 25 32 33 33 28 21 26 33 31 34 40 41 42 45 44 43 43 42 42 38 38 39 36 34 32 31 28 25 24 18 8 2 7 17 16 11 10 10 10 9 8 8 10 13 16 13 9 10 8 3 3 2 4 4 4 3 1 2 0 4 4 4 4 5 7 5 2 5 4 2 3 4 5 4 4 3 2 5 6 2 5 5 3 7 17 22 23
17 21 28 30 30 29 22 23 32 32 32 37 40 43 47 45 44 43 42 42 39 38 38 35 34 31 30 27 25 25 13 3 4 9 18 18 13 12 11 11 9 8 10 14 16 17 16 12 13 8 3 2 3 3 4 4 2 1 1 2 3 1 2 4 5 6 5 2 5 4 4 3 4 3 3 7 6 4 7 8 9 9 9 8 8 15 20 21
15 18 24 29 27 27 23 23 29 32 32 35 39 41 47 48 45 44 43 42 40 39 38 35 34 31 29 27 25 24 14 2 6 13 20 19 15 14 13 13 11 9 11 16 18 19 18 13 10 6 3 2 4 2 2 4 2 2 3 3 3 1 2 4 2 4 4 1 3 6 5 5 3 2 4 10 8 6 6 8 10 9 10 13 13 16 19 18
12 14 22 28 27 25 24 22 24 30 31 33 37 38 44 50 47 45 43 42 41 39 38 36 33 32 29 26 25 25 16 3 3 13 22 19 17 17 16 15 12 9 8 13 16 17 15 11 7 4 3 3 3 2 2 5 3 1 4 4 4 3 3 4 2 3 4 5 5 6 4 4 6 3 4 9 9 5 3 6 8 7 10 16 17 17 16 16
12 12 19 27 28 25 22 19 20 25 27 30 36 39 41 46 47 45 43 42 41 40 39 36 33 31 30 28 25 20 13 6 0 11 23 21 20 19 17 16 13 10 8 11 14 10 8 8 7 5 3 2 1 1 3 5 1 2 3 5 6 3 4 4 3 3 4 6 6 4 2 5 9 6 2 7 10 3 5 4 6 9 13 15 15 15 16 18
13 12 15 24 28 25 23 21 19 21 24 26 32 39 43 45 46 45 44 43 40 41 40 37 34 32 34 31 20 10 9 6 1 10 25 24 23 22 18 16 12 11 10 11 12 10 7 8 7 5 3 2 2 1 4 5 3 1 3 6 8 6 6 6 4 3 4 6 3 4 4 5 7 4 2 8 10 4 4 1 6 10 13 12 12 13 14 16
13 11 12 19 25 25 25 24 22 21 23 25 26 33 42 46 47 45 44 43 41 41 40 39 35 33 36 27 13 6 10 9 1 10 27 27 25 24 20 18 16 14 12 11 14 13 6 4 5 4 4 3 2 1 3 3 1 1 3 7 9 10 9 6 4 2 2 3 4 6 4 2 1 1 3 8 7 3 3 4 6 9 10 10 10 12 13 14
13 11 11 15 20 23 25 25 25 23 22 25 25 28 37 45 48 47 46 44 42 42 41 40 36 36 33 20 10 6 10 15 7 11 27 29 27 26 23 21 19 16 12 11 14 14 7 6 7 6 6 5 2 2 2 0 1 3 5 8 9 10 9 3 3 3 0 2 4 8 4 3 3 1 4 5 2 5 7 5 5 8 10 11 9 10 14 15
13 11 11 13 18 21 25 26 25 25 24 25 27 27 32 41 47 47 47 45 44 43 42 40 38 38 29 15 11 6 10 19 11 10 25 28 26 25 23 23 22 20 15 10 9 13 14 17 16 8 4 4 3 2 1 2 4 6 6 10 10 8 7 3 3 4 1 1 4 7 2 3 2 1 7 4 1 3 7 6 5 7 8 9 10 9 11 14
12 12 11 12 17 20 23 26 26 27 27 26 27 27 30 40 48 46 47 47 44 44 43 41 41 37 24 10 7 6 13 21 15 13 22 25 23 19 18 19 19 20 19 11 6 13 21 24 18 7 1 5 4 2 1 2 5 6 4 8 11 8 7 5 3 3 3 2 4 6 1 3 3 6 8 3 1 3 6 6 5 6 7 7 8 7 8 12
12 11 10 11 16 19 21 25 26 28 29 26 27 27 30 41 52 48 48 48 45 46 44 42 42 34 20 5 4 10 17 22 20 20 23 25 21 15 14 15 15 17 19 15 13 18 23 21 16 8 3 5 3 2 1 2 4 6 3 2 7 7 6 5 1 2 4 3 2 4 2 5 9 11 6 2 5 7 6 6 6 6 5 5 7 6 7 10
12 11 10 9 12 18 20 22 25 27 27 24 25 27 26 33 50 51 47 48 47 46 45 45 40 27 14 3 2 12 19 22 23 25 25 24 20 15 12 12 13 15 16 17 20 21 21 20 17 10 3 2 2 1 3 4 4 5 4 2 2 2 5 7 2 4 5 2 1 3 4 6 9 11 6 4 6 8 7 7 7 6 5 5 6 7 7 9
13 12 11 9 9 15 19 19 23 25 25 24 25 26 23 24 40 51 48 48 48 47 47 43 35 20 7 1 2 13 22 23 25 28 26 25 23 16 13 16 15 16 17 19 22 20 21 20 15 8 2 1 3 3 3 3 2 2 3 4 2 2 5 8 3 5 4 1 2 4 4 6 8 9 5 4 6 7 8 7 7 7 6 6 6 7 7 8
14 14 13 12 9 12 17 18 21 24 25 26 25 25 24 26 37 49 50 49 47 49 46 34 28 20 6 2 8 15 17 18 24 28 26 27 27 21 21 24 21 20 20 19 21 20 18 14 6 3 3 2 3 5 3 1 2 1 1 4 3 2 4 5 3 1 2 1 1 2 3 3 5 6 5 1 6 7 7 7 7 7 7 7 6 7 7 6
14 15 14 15 13 11 14 16 20 23 24 26 25 24 23 29 39 47 51 53 49 50 44 30 29 19 3 5 13 15 12 14 24 27 24 24 28 30 26 18 16 21 21 16 16 12 8 5 1 2 3 2 4 5 3 5 8 4 1 3 4 3 3 3 4 2 2 2 2 3 4 6 7 5 6 2 5 6 7 8 7 7 7 7 7 6 6 7
14 15 15 16 16 14 14 15 18 21 23 24 25 26 26 32 43 44 47 52 46 43 34 23 25 13 3 8 12 15 16 20 26 26 23 23 28 31 24 15 14 18 16 9 6 4 2 2 1 3 2 3 6 7 6 5 5 4 3 3 3 4 4 3 5 3 3 3 4 5 5 9 12 9 5 1 4 6 7 6 5 7 7 7 7 6 7 8
14 14 16 17 18 17 15 14 15 20 23 23 23 26 26 29 38 37 39 42 29 20 12 13 18 7 6 15 11 17 24 28 27 21 24 25 25 25 21 20 16 11 9 3 1 1 2 3 1 3 4 5 6 8 8 3 4 3 4 2 3 4 4 4 5 5 3 4 5 7 6 9 13 12 6 1 3 5 6 5 5 6 6 6 6 6 8 8
14 15 16 17 18 18 17 15 14 17 21 22 21 19 14 15 17 14 19 24 15 5 5 19 22 4 7 16 16 23 26 28 21 15 25 28 25 22 14 12 8 5 6 6 4 2 2 4 4 5 6 8 8 7 6 5 4 1 2 3 5 4 5 5 4 5 1 3 6 7 8 10 11 12 7 1 2 4 7 8 8 7 6 7 8 9 10 10
15 16 17 17 18 19 18 17 15 15 19 23 21 12 6 8 7 4 5 6 3 4 6 20 17 6 10 18 24 29 18 14 13 12 25 29 25 19 5 5 7 3 4 7 6 2 2 5 5 6 7 9 9 8 7 5 1 3 4 5 6 4 6 6 3 5 2 3 4 3 6 10 11 11 6 2 3 6 9 10 10 9 8 7 8 11 11 10
15 16 19 20 19 19 18 17 16 15 17 23 21 11 10 9 4 6 7 4 3 7 8 14 13 11 14 20 30 33 14 7 11 11 19 22 16 11 4 6 8 4 5 7 5 3 3 4 5 7 7 9 9 10 9 7 3 3 4 4 6 3 4 6 3 4 3 2 3 2 4 9 11 11 6 5 7 8 9 11 11 10 9 8 10 10 10 9
17 18 20 21 20 20 18 17 15 14 17 23 20 15 18 15 4 10 10 5 2 4 5 11 13 13 14 16 27 32 17 10 12 12 19 18 8 8 8 7 8 8 8 8 6 5 3 3 6 8 10 12 9 10 11 6 3 3 3 4 6 3 2 3 2 2 2 1 0 0 3 7 8 7 6 8 9 7 6 9 9 8 10 11 10 8 9 11
18 19 20 22 21 20 19 16 14 17 21 24 25 25 26 24 15 15 9 4 2 2 2 4 8 13 13 14 22 23 15 11 11 14 21 17 8 8 10 8 9 8 7 9 9 5 2 3 7 11 11 12 11 10 11 7 4 5 5 6 6 5 4 3 3 3 2 1 1 2 4 7 6 6 8 6 4 5 5 6 8 8 10 9 6 7 9 10
17 19 20 21 20 18 16 12 14 21 22 20 26 29 28 28 20 15 7 2 2 2 1 1 1 9 14 15 15 13 11 8 7 14 18 16 13 9 6 5 6 8 9 11 9 4 1 4 6 11 10 11 11 9 10 8 6 5 6 8 9 8 6 3 4 3 1 3 2 1 2 7 4 5 10 6 3 6 5 5 9 10 9 7 7 10 11 10
17 19 19 19 17 15 11 8 15 22 16 17 27 26 26 30 23 14 5 2 3 3 4 7 3 11 15 11 9 11 11 3 4 15 15 14 15 8 6 4 1 6 10 8 4 2 2 4 7 12 11 11 10 8 9 9 6 3 4 7 10 9 6 3 2 1 3 4 3 1 4 7 6 5 8 4 4 8 6 5 10 9 8 8 9 11 10 10
18 19 19 19 17 15 11 5 11 16 11 16 27 25 26 32 25 13 3 2 4 4 6 4 2 12 15 12 14 12 9 6 7 12 10 11 11 3 6 8 2 4 6 5 3 1 5 6 6 9 10 9 8 7 9 10 7 3 2 4 7 8 8 6 4 4 4 3 4 1 3 4 6 7 5 1 3 8 8 8 10 9 9 10 11 12 11 11
20 20 20 21 20 23 21 9 5 12 17 19 23 26 29 33 24 11 4 4 3 4 5 2 4 11 9 11 15 6 8 14 11 9 9 11 9 3 5 9 7 8 5 5 5 1 5 9 9 10 9 6 7 7 11 13 8 3 0 3 3 3 3 3 3 4 2 2 4 3 3 3 7 6 3 2 3 8 8 10 11 11 12 12 13 13 12 11
22 20 20 23 24 26 26 20 14 15 19 21 22 30 35 30 16 5 3 4 1 2 3 3 6 10 7 8 9 6 10 10 6 8 8 7 5 4 5 6 9 11 4 3 5 1 2 7 10 11 8 5 5 6 11 14 8 3 4 5 5 4 3 2 2 2 1 2 8 7 5 4 6 5 3 1 3 7 7 8 10 11 11 12 12 12 11 9
24 22 23 24 24 23 20 24 32 23 14 20 27 36 37 21 8 4 6 4 3 1 3 4 6 11 14 12 7 8 11 6 6 10 6 3 5 5 5 6 8 9 3 3 3 2 1 2 5 6 4 3 5 4 4 7 5 3 4 4 5 4 4 3 1 2 0 6 8 6 7 6 6 5 4 4 5 7 8 7 8 9 9 10 10 10 10 8
24 24 24 25 25 22 14 18 32 27 15 24 33 34 25 8 2 7 6 3 4 2 3 6 8 14 20 16 9 10 12 9 11 14 7 5 7 7 8 6 4 4 3 1 1 1 3 5 3 2 2 5 7 4 3 3 3 4 3 3 2 2 2 3 3 2 4 8 4 3 2 6 7 5 3 6 6 6 8 8 10 11 10 9 8 8 8 7
25 25 26 28 27 26 22 20 23 24 24 33 31 18 10 5 3 5 4 5 5 4 5 9 14 17 19 17 12 11 13 12 13 15 13 10 8 9 9 8 7 5 3 5 3 2 3 3 3 0 1 5 7 5 2 3 3 3 3 4 3 1 1 2 1 1 5 6 3 3 1 4 8 6 5 8 8 8 9 8 10 11 9 8 7 6 6 6
25 25 26 30 30 31 33 27 19 22 31 36 22 6 5 6 5 4 5 4 4 5 7 11 16 20 20 16 11 12 12 12 14 13 12 11 9 7 3 4 8 5 3 7 5 3 1 2 4 4 1 5 9 8 5 5 6 6 5 5 5 3 4 5 4 2 4 5 3 1 2 3 5 4 9 12 10 10 8 8 9 9 9 9 7 6 6 6
26 27 28 30 33 36 35 28 23 27 34 28 13 6 8 7 3 6 7 4 4 7 7 11 16 17 15 12 10 12 9 9 14 12 10 11 9 7 4 6 7 4 5 8 4 6 6 2 7 9 5 7 11 9 6 7 7 7 5 4 4 4 5 6 4 3 4 3 3 2 2 3 2 3 8 10 9 7 5 7 7 7 9 7 7 7 7 7
28 29 30 30 33 36 34 29 29 34 32 17 8 7 9 5 2 5 7 5 5 7 8 13 18 15 10 8 10 8 3 7 14 11 9 11 10 10 9 9 9 5 7 8 3 5 7 2 4 4 5 12 11 5 5 8 7 5 4 4 5 5 4 1 2 4 3 1 2 2 3 4 3 6 7 4 6 7 6 6 6 8 8 5 6 8 6 6
29 30 30 30 31 32 35 34 34 38 27 11 7 8 6 3 2 5 8 9 9 13 16 14 14 12 8 6 8 6 3 5 14 10 7 9 9 11 10 8 11 10 9 8 3 4 4 1 1 3 5 10 10 7 6 4 5 4 4 6 5 3 4 1 2 1 3 2 3 2 4 5 3 7 8 4 5 7 7 7 7 9 7 4 8 8 6 5
29 26 22 26 31 33 36 37 38 36 22 10 8 8 4 2 3 5 10 11 13 18 18 13 9 10 11 8 8 11 9 8 12 10 7 8 7 10 11 9 12 14 12 7 3 4 5 2 1 4 7 4 3 9 6 2 5 6 6 7 2 2 2 1 2 2 2 4 4 0 4 5 2 5 6 4 5 7 8 8 8 8 6 6 10 8 5 6
26 20 15 24 34 35 37 42 39 27 14 10 7 5 3 3 5 8 11 13 15 17 14 9 8 9 14 14 12 17 18 13 13 11 9 9 6 11 16 10 11 15 11 6 3 3 5 4 2 3 6 1 1 7 7 4 2 5 5 5 4 3 5 3 3 2 3 5 4 2 3 3 4 5 3 3 8 8 9 9 8 9 9 9 9 7 5 6
21 13 11 24 37 38 42 45 33 16 9 9 7 4 1 4 9 11 13 15 15 15 13 10 9 8 11 14 14 18 18 16 17 13 10 10 5 11 19 11 10 17 13 7 5 4 5 5 0 2 4 4 2 5 9 6 1 4 2 3 2 3 5 5 4 3 3 4 3 3 3 2 6 6 5 7 9 9 10 9 8 10 9 8 7 6 6 6
15 7 7 25 40 43 48 40 19 9 8 8 9 5 1 4 10 13 16 18 14 8 9 13 13 11 12 13 12 14 12 12 17 12 8 9 3 5 15 11 10 17 14 7 6 5 4 4 3 2 2 5 4 5 9 9 5 4 4 5 4 3 2 2 2 2 2 3 3 3 3 5 6 5 8 10 10 9 9 8 8 7 7 7 7 6 6 6
13 6 6 30 48 49 42 22 7 8 7 6 8 6 4 6 10 13 16 17 10 2 4 11 11 10 12 13 12 13 10 9 14 9 4 8 6 3 10 12 12 16 14 8 5 5 3 3 6 5 4 5 3 2 4 7 8 7 6 6 5 5 3 3 5 3 2 2 4 3 4 7 6 5 8 11 10 7 4 4 6 6 6 7 6 6 6 6
12 6 10 37 56 50 29 7 5 12 8 3 6 5 6 9 12 16 17 13 6 1 3 6 6 7 10 12 13 14 11 9 14 11 5 9 10 4 6 12 14 15 13 8 5 3 3 5 5 4 4 4 1 2 1 3 6 5 4 5 4 4 5 6 8 3 1 1 1 2 4 7 6 5 7 8 7 4 2 3 6 7 7 7 6 6 6 5
9 7 17 46 62 45 18 6 11 12 6 6 9 4 4 8 13 17 16 13 7 3 5 6 7 10 10 9 11 13 11 8 12 10 3 5 6 3 8 16 18 16 10 7 6 4 4 5 5 4 1 2 3 3 4 4 4 4 4 4 5 4 4 4 5 3 3 4 2 2 6 7 6 3 4 6 6 6 5 5 6 7 6 6 6 6 5 5
7 6 12 40 59 40 14 9 12 8 4 9 11 5 1 2 12 18 18 15 8 6 10 10 9 11 9 10 13 15 13 7 8 7 2 4 5 4 12 19 19 16 10 7 9 6 3 4 5 6 4 2 2 2 2 2 3 4 3 3 4 4 4 2 1 2 3 6 6 6 8 7 5 4 3 5 5 6 7 5 6 7 6 6 5 5 5 5
7 5 3 19 35 27 11 9 11 8 7 11 10 8 4 1 7 15 19 15 6 6 9 7 8 9 8 10 10 10 10 6 6 7 2 4 2 2 13 21 19 15 9 8 10 6 3 5 6 8 8 8 8 7 7 6 3 2 2 4 4 5 6 4 1 3 6 6 5 7 7 6 6 5 5 5 5 6 7 4 3 6 6 6 5 4 4 4
8 6 5 7 13 15 7 5 10 9 10 13 10 7 10 7 4 7 12 10 3 4 6 5 9 10 8 12 10 9 11 2 3 6 4 6 4 1 11 20 18 14 10 13 13 6 3 4 6 10 11 11 11 7 6 10 8 8 9 9 7 7 7 5 2 5 6 1 2 7 5 3 6 5 5 7 6 6 7 6 5 5 6 6 5 4 4 4
9 6 9 8 6 11 7 2 8 10 10 14 10 7 12 13 8 4 3 3 2 5 7 5 12 13 13 18 14 12 14 3 4 10 9 7 4 3 5 13 13 12 12 12 12 7 4 5 11 13 11 6 5 5 8 13 13 14 13 12 10 8 8 8 8 10 5 3 8 9 5 5 8 6 6 9 7 5 6 6 6 6 5 5 4 3 4 5
6 5 11 11 6 8 9 5 9 11 12 11 8 10 15 15 13 9 4 1 2 7 7 6 13 18 20 22 16 13 14 6 4 10 10 7 6 6 6 6 9 13 13 9 9 7 5 7 11 12 9 4 5 7 10 11 10 11 13 13 11 9 10 11 15 12 7 6 13 5 6 9 8 5 9 9 5 4 5 6 5 5 4 2 2 3 5 6
4 4 5 6 6 11 14 11 12 14 14 9 6 10 16 17 17 12 6 4 5 9 10 12 18 22 23 22 16 13 15 12 9 12 14 14 13 12 11 7 8 13 15 11 8 6 5 6 8 9 8 4 4 7 11 10 8 8 11 13 12 11 12 14 17 13 8 12 13 3 7 12 6 6 11 7 2 4 4 5 5 5 4 3 3 6 7 7
5 7 6 5 4 12 17 14 13 15 11 7 8 10 14 19 21 13 7 10 13 12 12 17 21 22 23 23 18 17 24 25 21 19 18 18 15 12 11 8 7 10 13 11 7 2 2 4 5 7 6 2 1 3 6 8 9 9 10 13 15 15 17 17 17 11 8 14 12 5 11 14 5 5 9 7 4 5 5 7 7 5 4 4 5 7 8 8
3 5 9 10 6 9 14 13 12 14 10 8 10 12 14 20 23 17 8 6 11 14 14 17 19 16 17 20 21 21 23 19 12 10 14 15 13 9 6 5 8 10 9 7 5 2 2 2 3 6 6 3 2 3 4 5 5 4 9 14 18 18 16 15 14 11 13 16 11 7 12 9 2 3 8 9 9 8 8 10 8 5 5 6 7 8 9 9
3 2 2 9 10 9 12 11 10 12 10 8 10 12 15 18 20 19 10 1 1 7 9 14 17 13 13 20 22 16 10 9 8 8 8 8 6 5 4 7 13 15 11 6 3 3 5 4 2 5 6 3 2 5 6 7 5 4 11 15 17 15 13 13 14 16 18 15 10 11 13 5 6 6 11 12 11 9 10 10 8 7 7 7 8 9 9 9
Wind_Direction
219 222 225 227 231 230 224 224 227 222 214 209 208 200 194 196 196 195 194 195 195 192 191 192 193 192 191 192 194 193 191 184 181 184 186 194 191 168 166 169 164 147 126 133 149 145 94 56 21 11 17 19 1 339 352 353 44 37 79 101 164 181 199 187 186 196 179 228 218 220 195 170 189 198 172 82 52 63 150 285 308 301 333 198 275 135 160 167
215 220 222 227 234 235 229 226 224 224 218 210 208 201 195 196 196 195 194 193 193 191 190 189 191 190 190 192 192 195 192 182 176 210 210 200 195 181 166 167 167 158 141 125 139 140 97 63 61 45 35 33 344 333 354 1 33 78 115 108 212 200 209 196 183 189 196 226 187 205 204 185 193 168 156 175 251 88 157 256 328 309 304 37 128 144 156 163
211 217 220 224 232 235 233 227 221 222 219 212 210 202 195 196 195 195 193 192 192 190 188 187 189 187 188 187 186 191 186 172 213 239 223 210 205 198 181 175 160 158 150 118 124 128 108 80 74 77 55 38 352 329 7 7 3 85 107 318 241 215 245 236 193 200 217 164 151 200 188 191 206 154 158 178 179 175 191 219 214 239 234 139 142 149 154 163
212 216 219 222 228 232 230 223 220 220 219 215 213 203 196 195 195 195 193 191 191 189 187 186 187 186 187 183 183 183 158 94 236 221 219 211 209 200 186 180 153 152 149 114 108 117 117 92 64 61 70 46 329 347 23 356 359 11 149 198 245 198 278 257 209 221 237 174 158 163 132 194 217 152 169 149 143 243 237 221 203 206 192 160 161 156 158 166
213 217 218 220 221 226 225 221 219 219 220 219 215 206 196 194 194 194 192 190 190 189 187 186 186 186 185 182 181 170 138 74 216 203 214 209 203 196 178 171 156 151 139 113 100 104 115 110 79 51 44 51 335 351 24 353 40 327 260 223 246 167 275 274 220 230 233 133 131 139 161 191 168 153 180 159 174 229 232 226 212 197 172 163 166 162 163 171
210 211 216 218 219 222 222 222 219 216 221 221 215 207 197 193 191 192 191 188 189 188 187 187 185 185 184 181 176 163 152 187 187 191 209 205 193 187 174 171 169 165 143 120 106 98 100 94 94 81 44 55 348 285 325 350 41 323 291 294 275 200 243 288 3 243 182 127 157 177 201 154 141 201 185 178 204 215 251 246 210 185 169 165 160 161 167 175
209 204 212 217 220 224 223 221 217 214 219 219 213 208 200 193 189 189 189 187 187 186 185 185 182 179 175 170 167 166 177 210 141 182 196 201 192 183 178 179 182 181 164 129 109 100 97 87 111 118 97 106 34 290 340 339 25 175 262 317 315 256 244 281 339 273 181 171 200 179 150 156 177 199 142 203 226 250 311 275 180 158 153 157 159 167 176 178
213 207 209 214 220 225 223 219 215 214 218 220 216 211 203 194 189 187 187 187 185 184 183 181 177 172 166 159 156 172 198 196 21 174 181 191 191 183 181 178 177 176 164 148 129 122 105 94 125 129 114 135 114 75 357 341 16 82 276 325 328 302 285 290 301 275 205 204 185 125 164 198 196 171 143 223 234 272 325 66 139 139 143 160 170 176 179 179
217 216 213 213 218 222 221 218 216 216 216 219 223 219 208 195 190 188 187 186 183 182 181 178 175 169 165 159 149 179 195 186 99 167 174 179 185 187 187 175 169 170 158 158 154 142 126 118 149 144 129 125 104 79 12 352 38 21 296 309 313 305 299 300 302 280 213 223 146 152 198 259 263 157 245 238 217 203 62 100 135 138 150 169 177 181 180 181
219 223 221 215 216 219 219 215 215 217 215 218 225 228 214 195 187 186 185 184 182 181 179 177 174 169 166 158 155 182 186 187 184 165 174 175 176 182 187 184 177 172 158 152 158 149 133 136 136 124 118 105 97 82 32 216 270 314 304 298 295 294 291 291 307 296 280 270 176 166 195 273 327 324 249 267 199 144 105 115 154 151 165 174 179 186 186 188
217 223 224 217 215 218 219 213 211 214 217 221 223 226 220 198 184 183 184 183 182 180 179 177 173 170 168 160 170 187 167 177 179 163 176 177 172 173 181 189 189 181 165 145 156 154 134 130 126 113 107 106 118 100 354 296 315 313 318 310 299 303 296 256 264 279 129 230 181 145 144 277 349 270 229 261 298 153 128 146 178 174 179 178 181 185 189 195
215 221 225 216 214 216 220 216 210 212 218 223 220 222 227 204 186 183 183 182 181 180 178 176 174 170 163 163 183 172 161 169 172 168 175 175 169 170 174 179 186 184 172 146 132 151 142 137 126 98 118 135 134 165 218 302 319 310 340 321 308 330 314 258 233 232 158 178 185 140 110 275 223 225 237 246 203 131 127 160 189 193 191 183 184 187 195 198
210 216 224 213 211 214 219 218 212 212 215 220 218 220 228 205 185 183 182 180 180 178 176 174 173 168 157 166 185 156 161 164 166 167 168 170 164 159 162 165 169 176 180 166 143 147 147 144 127 96 98 125 134 193 153 358 338 325 345 313 308 337 314 277 246 152 154 167 188 154 215 255 234 238 245 185 151 124 130 180 194 203 200 190 190 192 202 201
207 210 222 216 208 212 218 219 215 210 208 215 218 218 228 206 184 182 181 179 179 177 176 173 170 166 158 162 158 157 162 162 164 163 163 166 149 126 135 151 154 158 169 161 144 144 145 138 120 99 76 95 127 135 36 11 13 342 314 264 305 314 280 293 301 147 157 178 96 144 222 257 252 253 244 186 164 147 167 194 195 207 204 197 200 199 207 208
208 207 220 230 214 212 216 218 216 213 211 211 215 216 224 218 189 181 181 178 178 176 172 170 168 160 151 218 179 160 159 159 164 165 167 163 142 116 117 128 129 134 140 140 136 137 138 131 114 103 118 57 87 89 45 2 8 351 286 284 312 220 265 300 287 162 165 228 75 144 221 271 265 266 266 205 181 167 183 199 197 204 205 202 206 206 213 218
219 212 221 237 234 222 216 217 216 215 217 211 214 214 216 225 199 182 181 178 175 173 166 166 170 163 154 175 160 157 155 158 164 164 167 164 146 125 115 114 109 114 119 120 126 129 125 118 101 101 123 108 105 100 78 348 279 310 207 261 285 244 273 306 297 214 149 101 78 184 223 273 270 287 323 238 185 180 188 204 206 205 210 208 208 213 215 221
226 221 227 238 244 238 219 220 219 214 218 213 213 213 215 223 201 182 180 177 172 169 166 167 169 163 143 142 152 162 158 156 162 159 158 161 150 133 121 106 96 105 104 103 117 118 99 88 111 114 89 116 128 118 133 206 225 232 170 238 260 234 239 284 286 281 85 100 191 217 228 250 263 290 329 328 178 187 199 206 209 209 214 211 211 219 218 221
228 226 227 236 245 244 231 226 223 219 216 210 211 212 217 217 198 183 175 169 165 166 169 168 163 160 204 181 166 163 157 153 158 157 152 154 150 142 132 119 116 110 100 91 100 97 59 41 131 141 123 150 146 158 189 208 206 191 181 225 263 237 222 252 269 240 139 121 188 202 231 255 265 272 292 314 163 193 220 220 219 220 222 220 217 219 220 223
231 231 229 236 242 243 242 232 227 227 214 205 210 211 217 210 194 186 172 161 161 168 166 158 166 179 180 178 164 147 155 154 153 154 149 147 145 137 127 126 125 113 114 114 98 146 129 88 116 162 156 166 173 185 185 123 82 148 185 224 269 256 243 232 250 262 176 155 206 206 219 244 255 258 264 307 160 196 243 259 245 230 227 231 227 226 228 225
231 235 234 238 241 244 248 240 235 230 217 211 206 199 215 210 186 189 174 163 170 178 147 163 171 172 121 151 142 135 149 151 146 151 151 150 138 120 114 124 108 92 134 139 139 163 154 158 187 181 168 174 177 176 158 112 70 313 268 282 278 263 277 263 255 291 241 176 229 217 223 242 250 258 263 306 150 204 237 244 241 231 220 225 224 229 229 226
233 237 238 240 243 246 248 247 244 233 222 216 206 190 210 217 188 189 156 146 151 76 133 162 152 94 118 141 138 135 137 139 138 151 154 151 139 124 132 150 118 101 134 126 124 109 188 190 182 171 169 163 154 145 149 154 144 304 285 285 283 248 264 271 265 314 335 186 249 240 237 252 255 260 264 125 165 221 225 225 233 228 221 223 223 230 231 234
240 240 242 243 244 247 249 251 249 241 227 216 213 211 215 236 252 173 141 86 38 67 111 139 106 84 121 134 142 139 124 116 134 154 161 156 147 142 171 162 140 132 119 117 115 120 195 201 161 157 143 127 134 140 151 170 182 266 280 281 281 261 273 272 255 327 2 184 270 323 248 256 258 257 245 182 203 233 223 216 225 219 218 226 223 229 233 240
248 247 246 245 246 247 249 255 255 248 233 219 217 216 213 226 219 139 128 88 46 47 101 133 119 123 131 139 152 146 135 147 151 166 170 163 158 145 144 151 140 132 141 152 157 159 186 203 156 143 129 130 142 151 151 154 176 224 251 262 265 261 279 281 277 326 11 94 269 17 270 267 265 270 261 221 219 246 237 222 229 216 216 227 225 226 228 235
253 254 250 247 247 248 250 262 266 248 236 227 225 222 213 212 189 139 112 64 75 6 22 117 122 139 141 146 160 156 145 151 152 164 171 164 147 139 143 143 133 137 168 174 171 163 166 226 161 141 145 150 149 160 163 163 197 218 222 233 249 253 240 249 300 313 333 8 98 86 321 283 255 260 265 245 223 259 256 230 243 238 228 234 242 237 228 230
252 254 253 250 248 247 252 269 259 237 233 233 232 229 209 198 184 145 111 63 122 320 306 137 107 144 137 133 154 154 128 134 153 161 172 165 144 138 140 137 139 163 176 171 172 163 164 237 166 143 157 160 155 171 175 171 194 227 225 220 233 248 249 257 311 322 304 279 264 123 267 273 284 261 250 250 224 245 244 219 237 243 234 229 238 239 232 230
253 251 250 250 245 238 246 262 241 227 225 233 231 225 196 182 175 150 121 74 151 246 184 166 189 157 146 132 138 133 122 130 153 149 164 165 151 139 138 144 102 162 163 158 168 152 162 212 172 156 161 159 164 182 180 169 174 237 230 203 217 236 243 246 285 273 221 252 284 151 204 258 303 269 243 256 253 248 254 246 243 245 239 224 227 235 231 230
260 254 244 242 235 221 221 235 223 207 208 233 225 211 181 169 166 146 118 245 188 187 162 154 169 157 157 150 146 144 145 139 125 151 172 163 153 104 133 155 122 138 150 139 174 181 144 172 179 160 153 158 178 185 176 165 158 225 250 174 200 225 232 222 191 206 235 278 301 278 168 244 272 253 247 335 285 266 266 259 254 246 240 233 232 234 228 226
263 254 241 236 230 220 222 232 212 200 212 222 214 201 176 160 155 137 138 226 187 139 145 100 113 137 140 146 146 135 136 135 135 177 192 156 146 62 126 162 142 133 135 142 177 226 133 168 178 159 155 178 188 168 160 161 169 226 237 113 167 199 224 213 184 222 273 338 276 253 150 218 260 269 307 21 246 260 260 249 248 242 235 235 235 235 232 228
264 253 238 231 231 229 231 241 248 234 221 211 196 185 167 147 132 122 203 217 128 111 157 126 128 131 117 129 132 110 132 137 133 165 174 152 130 73 125 151 125 122 100 91 151 204 198 186 173 160 169 186 161 141 159 169 181 198 128 94 65 64 57 67 163 200 15 278 246 228 186 212 261 267 280 316 236 244 253 249 245 240 236 236 237 240 239 233
264 253 237 226 229 231 230 240 242 242 229 202 180 162 153 139 118 175 216 191 116 134 165 149 156 146 137 129 119 132 137 121 120 141 155 145 116 86 96 101 100 114 91 39 104 179 213 140 152 163 174 152 123 107 136 162 154 112 119 88 49 39 34 41 69 96 137 255 249 228 195 202 259 260 217 225 216 208 225 249 257 254 248 243 241 245 243 233
258 249 235 223 224 219 214 237 235 231 216 184 166 150 146 139 156 188 207 160 121 162 163 146 150 146 144 141 137 147 135 122 141 148 152 148 135 126 120 116 97 96 105 79 82 76 84 106 148 190 146 111 115 124 67 65 84 80 105 115 75 360 9 15 2 67 216 243 270 310 199 190 240 255 219 243 243 218 215 226 244 250 250 249 246 249 247 236
252 243 231 224 224 216 216 231 225 213 194 169 158 153 152 147 188 188 170 146 147 183 176 152 152 153 150 144 140 144 137 138 155 157 154 152 154 159 156 162 157 129 157 181 155 73 79 156 193 171 147 137 134 149 121 89 101 94 127 151 146 166 170 226 248 178 231 249 295 338 163 204 242 246 251 265 263 248 230 220 237 247 253 258 258 260 257 245
250 240 231 225 225 223 224 230 225 203 184 169 161 170 167 174 201 154 130 158 155 156 167 158 156 154 148 144 142 141 137 146 159 159 154 150 156 165 154 160 153 124 152 163 143 117 82 281 210 166 182 177 165 164 161 165 170 170 179 175 170 159 170 204 209 212 250 259 283 296 186 249 281 261 243 245 244 241 231 229 240 246 253 260 268 277 276 260
251 239 235 229 226 229 226 226 222 195 177 172 174 182 181 194 197 124 134 171 140 135 156 152 146 143 138 135 143 144 135 150 159 153 148 149 158 170 167 181 171 86 109 148 155 168 159 235 207 181 173 178 181 182 154 137 160 185 177 159 208 211 181 199 202 209 237 256 284 284 190 205 223 251 242 236 252 266 246 245 255 256 257 263 280 282 273 261
255 242 239 233 230 230 224 221 213 188 174 177 189 189 191 184 145 143 148 148 136 133 140 143 140 134 126 126 144 148 114 156 160 152 160 166 172 178 173 182 182 132 131 157 169 171 170 241 224 172 151 166 175 180 136 123 148 189 151 147 230 220 148 166 195 183 186 228 270 245 225 214 210 269 279 265 278 279 257 258 264 260 261 266 274 270 259 254
257 244 236 230 230 227 218 215 202 182 177 191 194 193 199 164 165 167 148 151 154 143 140 146 146 136 129 131 145 142 57 147 159 155 172 176 179 184 176 179 181 165 154 154 133 160 170 266 289 81 130 173 173 160 164 164 157 157 167 189 216 169 113 67 257 90 83 214 251 195 238 287 311 282 297 339 307 282 266 263 251 251 263 273 262 256 249 248
253 237 229 226 224 219 212 205 190 177 182 209 205 192 176 134 172 153 146 153 151 147 146 150 156 149 144 145 156 155 135 138 161 164 169 175 192 192 182 188 185 174 170 158 133 182 156 104 243 154 149 197 190 154 176 247 140 143 193 194 139 90 124 154 245 326 66 226 271 189 222 274 280 264 306 340 283 271 262 253 252 260 264 253 251 248 246 247
240 219 227 225 215 209 201 192 181 174 187 213 210 195 152 136 154 146 148 150 148 154 155 151 163 162 157 159 163 163 154 152 169 173 168 177 208 193 181 189 187 178 180 154 119 179 143 99 308 202 154 166 12 152 185 253 152 140 182 169 124 189 214 189 193 218 203 226 281 304 257 255 212 231 290 241 233 247 254 248 247 255 246 239 249 253 250 246
220 199 233 216 204 197 187 180 177 175 192 208 209 208 163 135 151 154 155 154 156 162 161 161 165 163 168 166 159 163 165 165 170 171 176 184 209 194 182 180 175 178 180 151 132 172 144 113 247 247 155 146 120 174 193 207 136 76 123 176 157 193 210 199 187 184 197 222 264 290 300 266 224 217 210 227 235 234 246 253 245 247 246 243 251 249 241 234
194 193 224 193 189 182 173 170 174 187 197 208 207 199 157 150 156 163 166 160 160 170 171 170 166 161 167 161 152 164 169 167 171 173 181 178 177 202 187 178 167 172 171 141 128 161 148 119 143 157 139 143 162 208 192 180 176 161 177 196 189 193 212 220 210 166 158 196 217 244 273 266 247 213 199 224 239 230 236 251 252 257 262 255 252 247 242 234
173 218 192 171 172 167 163 165 181 191 197 204 191 177 175 168 151 160 173 168 160 165 164 168 168 161 160 155 157 169 163 160 175 178 181 176 173 212 192 174 157 158 157 146 151 170 157 127 137 146 167 166 176 242 178 171 182 183 194 200 189 193 187 211 232 211 123 194 189 188 260 268 253 210 201 217 227 230 238 253 261 272 268 261 257 242 236 233
175 220 157 159 162 158 157 171 181 185 207 186 153 155 164 159 151 160 172 173 171 109 116 147 150 147 161 164 163 168 162 162 178 182 194 191 187 197 173 148 142 153 157 150 160 165 112 106 115 134 183 186 158 4 50 148 152 149 202 205 174 182 185 210 232 216 114 249 142 129 258 268 257 218 215 233 245 259 271 258 268 276 271 272 272 250 238 238
178 172 146 155 158 156 158 185 176 185 209 149 140 155 171 159 157 160 166 174 181 162 141 148 155 162 174 168 157 164 164 163 179 180 161 176 185 189 158 145 144 156 158 142 156 168 125 114 101 98 107 353 357 4 14 34 103 152 214 185 163 195 187 201 223 181 190 220 151 197 255 266 271 242 227 257 278 285 266 243 252 266 274 277 276 265 243 234
166 142 142 157 160 161 168 184 175 176 172 143 139 143 353 155 159 158 166 176 177 162 162 165 169 170 170 162 163 171 166 157 185 190 116 144 177 168 157 153 153 162 170 165 168 171 153 141 125 119 113 40 355 319 284 231 183 188 199 147 158 165 115 116 207 137 226 226 183 209 246 254 273 304 297 276 288 286 266 234 231 252 272 280 280 275 246 225
151 130 126 159 162 168 178 176 167 152 146 145 137 143 137 114 174 168 167 170 165 152 159 159 151 140 138 150 152 166 169 152 173 184 103 117 156 161 161 162 165 172 172 152 148 142 144 157 148 144 154 175 189 205 208 192 173 158 138 130 161 169 155 169 178 181 234 234 178 208 243 260 286 308 305 294 303 293 284 290 264 255 261 266 268 265 243 216
156 142 148 150 163 178 181 151 157 153 149 144 135 151 153 147 181 179 162 165 166 125 124 122 130 117 127 149 142 170 190 158 105 160 147 144 162 237 173 170 171 170 149 138 144 137 116 161 184 182 183 187 188 190 148 132 153 190 180 160 162 178 173 151 144 216 220 175 207 231 226 252 279 279 278 287 286 274 284 309 308 282 270 265 258 251 235 213
163 154 162 150 152 177 178 143 159 160 156 151 146 160 160 154 160 168 161 193 206 132 109 120 147 144 157 163 159 178 186 140 90 159 162 156 134 56 151 171 171 157 137 142 157 144 112 182 202 201 206 194 160 147 136 146 176 191 178 169 170 170 162 165 212 224 170 137 251 240 176 209 255 260 265 271 264 263 277 275 276 283 282 272 262 248 232 220
162 148 161 153 136 164 174 169 160 157 160 159 152 156 157 152 157 167 170 209 207 161 131 139 167 168 170 169 166 173 175 162 152 165 161 158 142 119 139 176 183 162 146 154 176 161 155 205 202 195 205 198 139 145 150 160 181 180 175 184 182 174 175 194 224 223 167 212 250 229 168 216 236 241 254 255 232 236 262 265 274 287 286 268 241 244 242 234
125 108 140 141 137 157 159 153 153 160 164 156 140 156 157 154 162 171 161 144 182 184 162 165 179 176 173 172 167 164 172 176 183 183 176 169 163 155 155 171 194 177 163 167 187 177 174 202 188 174 185 193 168 166 156 153 164 172 186 192 185 189 198 212 230 228 203 238 257 264 237 244 226 224 256 269 206 214 256 292 300 289 281 270 240 246 249 243
132 143 138 102 123 157 156 153 156 161 166 159 156 165 163 161 166 170 169 167 174 184 180 178 180 176 173 173 172 180 188 188 186 185 175 166 164 166 170 173 177 175 170 171 182 199 197 189 152 135 156 200 258 176 153 146 157 172 195 199 195 202 209 218 230 229 228 248 254 267 267 263 239 230 268 291 284 272 288 292 281 257 241 235 238 246 245 241
111 148 156 142 138 154 154 156 157 157 170 179 169 167 168 170 168 164 173 193 177 180 188 179 170 167 170 179 189 196 195 188 175 160 159 163 164 162 167 158 144 153 166 168 158 122 118 154 106 117 154 243 305 141 128 96 109 175 219 210 202 205 211 221 227 217 225 242 248 258 264 259 168 213 262 265 262 268 272 270 269 256 226 214 231 246 246 240
106 70 139 141 142 152 155 156 159 164 174 176 167 169 173 173 168 162 160 266 211 178 169 155 153 157 173 190 198 193 165 134 110 112 135 142 125 104 106 133 146 154 157 144 120 111 121 123 117 136 162 250 293 138 128 87 72 258 238 209 199 204 211 221 226 219 222 230 234 243 248 217 137 206 248 255 251 244 246 248 247 249 241 225 231 243 246 243
Height
716 718 721 723 725 727 729 731 733 735 737 739 742 743 746 750 753 757 761 764 767 769 772 775 778 781 783 785 788 790 792 794 797 798 798 799 800 801 802 803 805 806 807 808 808 810 812 815 815 815 814 817 821 822 821 821 823 824 831 838 840 844 841 834 835 834 830 827 826 829 829 828 830 833 833 833 835 837 839 839 837 836 836 836 836 836 838 841
713 716 719 721 723 725 726 728 730 732 735 737 740 741 743 747 751 755 758 763 766 768 771 774 778 780 782 785 787 789 792 795 797 797 796 798 800 801 803 803 805 806 807 807 807 808 812 816 817 818 821 824 827 825 823 824 825 829 837 840 839 838 833 828 827 828 828 825 824 828 829 829 828 830 832 833 837 839 840 839 838 837 836 836 837 837 839 841
712 714 717 719 721 723 724 725 728 730 732 734 737 739 742 745 750 754 757 761 764 768 770 774 777 779 782 784 786 789 792 796 798 796 795 797 800 801 803 804 805 806 806 807 807 808 811 816 818 821 826 829 831 828 826 826 828 833 838 839 835 832 829 828 827 825 826 824 824 827 830 831 828 829 831 832 838 841 838 836 837 836 835 836 838 838 840 842
710 711 713 717 720 722 723 724 727 728 729 733 736 737 740 744 749 752 755 759 763 767 770 773 776 779 782 783 786 789 793 800 797 792 793 796 799 800 802 803 805 806 806 808 808 808 810 815 820 824 828 831 834 830 830 832 832 835 837 835 832 832 830 825 827 827 826 827 825 827 831 831 828 829 830 832 837 840 835 830 829 829 831 835 837 838 840 842
707 708 711 715 718 721 722 723 725 726 728 730 734 736 738 742 746 750 754 758 762 766 769 772 775 778 781 783 787 788 796 806 795 787 792 795 798 800 801 803 804 806 807 808 809 810 811 815 821 828 832 834 835 832 834 835 834 837 834 831 832 834 831 824 827 829 828 829 827 828 829 826 827 829 829 830 831 831 828 824 824 825 827 831 834 836 839 841
707 707 709 712 716 719 720 721 723 724 726 729 732 734 736 738 743 747 752 756 760 764 768 771 774 777 781 783 787 788 795 801 789 785 791 793 797 800 800 802 804 806 807 808 810 812 814 818 823 832 836 838 839 836 837 836 835 839 835 830 831 832 831 826 826 828 829 828 827 828 826 825 827 826 828 828 824 822 823 823 823 825 827 828 831 834 836 839
706 707 708 710 713 716 718 719 721 722 725 728 730 733 735 736 740 745 750 755 758 762 767 770 774 777 780 784 788 789 790 790 785 786 789 792 796 798 800 802 804 806 808 808 810 813 815 819 825 834 838 840 843 841 840 838 836 840 837 832 832 831 830 827 827 828 828 826 825 827 826 825 825 825 830 827 820 821 824 823 823 824 827 829 831 833 834 836
704 706 707 708 711 714 716 718 720 722 724 727 729 731 733 736 740 743 747 753 757 761 765 769 773 776 779 782 785 790 790 786 785 786 788 791 795 797 800 802 804 806 808 809 810 812 816 821 826 832 838 841 843 843 843 840 838 841 840 837 835 832 829 827 828 827 826 826 826 827 825 825 826 827 828 823 820 822 823 823 824 824 827 830 831 832 834 836
701 704 705 707 709 712 714 717 719 720 723 726 727 729 731 734 737 740 745 751 756 760 763 767 772 775 778 779 783 790 788 784 785 786 788 791 793 796 799 801 804 806 807 809 810 811 816 823 826 828 834 842 844 843 845 843 843 845 843 841 838 833 829 828 826 825 826 827 826 826 826 827 829 830 824 817 819 823 824 825 825 826 827 830 831 833 834 835
701 702 704 705 707 710 713 715 717 719 722 724 726 728 730 731 733 738 744 750 754 759 762 766 770 774 777 778 783 788 783 783 786 786 788 790 792 795 798 800 802 804 807 810 811 811 815 820 824 825 830 839 844 845 847 846 844 843 841 839 836 833 829 827 825 824 826 826 826 825 828 829 829 830 822 816 821 823 824 827 827 827 828 829 831 833 834 834
701 702 704 704 706 709 711 714 716 718 721 723 725 727 729 730 731 736 742 748 753 757 761 765 769 772 775 777 781 784 781 782 786 786 789 791 793 795 796 799 800 802 806 810 812 812 814 818 821 823 829 837 844 847 846 846 843 841 839 836 832 830 828 826 825 825 824 825 826 825 827 829 829 828 820 818 825 824 823 828 829 828 828 829 830 832 834 834
700 702 704 705 706 707 710 712 714 717 720 722 724 726 729 730 730 735 741 747 751 755 760 764 768 771 774 778 780 780 780 782 784 787 789 791 794 796 797 799 800 801 805 810 814 813 813 816 818 824 830 835 842 845 845 845 843 839 839 838 833 829 826 822 822 825 823 823 825 825 829 831 828 823 817 821 827 825 825 828 830 830 829 830 830 832 833 834
699 701 703 705 706 707 708 710 712 715 718 721 723 726 728 727 728 733 739 744 749 754 759 763 768 770 773 779 779 779 780 781 783 787 789 791 794 796 798 800 801 802 805 809 813 813 814 816 818 825 832 836 840 841 840 842 842 839 840 842 839 835 829 822 823 825 823 824 824 826 834 831 823 817 817 823 827 825 826 829 831 831 830 831 831 832 833 834
698 700 701 703 705 706 707 708 711 714 717 720 722 724 726 726 726 731 737 742 747 752 758 762 767 769 773 778 778 779 780 781 784 786 789 791 793 796 799 800 802 804 805 809 812 814 816 816 819 827 833 836 838 838 840 843 846 845 843 843 845 844 833 823 825 825 822 826 824 827 835 827 817 815 818 824 825 823 823 827 831 831 830 831 831 832 832 832
697 698 700 701 703 705 706 708 710 713 716 718 720 723 725 727 727 729 735 741 746 751 758 764 767 769 775 779 778 778 780 782 784 785 787 788 791 796 800 801 803 804 806 809 813 815 816 817 821 829 836 837 836 839 846 848 849 850 849 847 848 849 836 823 824 824 822 825 824 827 834 827 816 813 818 825 826 823 822 825 830 830 830 831 830 832 831 831
696 698 699 700 702 704 706 708 710 712 715 717 720 722 725 728 728 729 733 738 744 750 755 762 765 767 774 778 776 778 780 781 783 784 787 787 788 795 800 802 804 805 808 811 814 817 817 820 825 830 835 838 839 842 849 854 853 852 854 851 848 847 841 828 824 825 823 824 825 826 830 825 815 814 820 826 826 824 822 825 829 829 829 830 830 830 830 831
696 697 699 700 702 703 705 707 709 711 713 715 719 722 725 727 727 728 731 736 743 749 753 757 761 767 774 776 774 776 777 778 782 784 787 788 788 792 797 802 806 807 809 813 816 818 819 824 829 831 834 837 840 843 851 859 856 854 856 854 849 846 844 835 825 824 825 825 825 826 828 822 813 814 821 825 827 826 823 823 827 829 829 829 829 829 830 830
695 696 698 700 701 703 704 706 708 710 711 714 717 721 724 725 725 727 728 732 740 749 753 756 761 767 770 771 768 768 772 775 780 782 786 790 790 792 795 800 806 808 811 817 819 820 823 827 830 833 836 838 840 841 848 853 851 854 856 853 849 843 842 839 828 824 825 825 825 827 829 825 815 813 818 823 828 827 824 824 827 828 828 828 828 829 829 829
694 695 697 699 701 702 703 705 707 708 710 712 716 720 723 722 722 723 722 724 731 737 739 743 751 751 749 755 760 763 769 773 778 783 785 788 791 793 796 799 804 807 812 819 822 823 824 829 833 833 837 841 840 839 843 847 848 852 853 851 850 843 839 836 828 826 827 825 826 827 827 824 816 813 815 821 827 827 827 827 826 827 828 828 829 828 827 828
693 694 696 698 700 701 702 704 705 707 709 711 714 718 720 716 714 716 717 717 720 722 722 725 733 738 738 747 756 762 770 774 778 782 784 786 789 793 799 801 804 808 812 817 823 823 823 828 832 831 833 836 837 838 840 843 848 853 855 854 852 848 843 832 825 827 828 826 825 824 825 822 817 814 814 821 826 826 826 825 824 824 826 827 827 826 825 825
692 693 694 696 698 700 701 702 704 707 708 709 711 714 714 709 706 708 712 718 721 720 722 724 729 737 741 745 751 757 766 774 779 781 783 785 786 792 800 802 805 813 814 816 822 824 824 827 828 827 827 829 833 837 839 842 847 854 856 855 852 850 844 833 828 830 829 828 825 824 827 824 818 815 816 821 823 821 820 820 820 821 823 824 824 824 822 821
691 692 693 695 697 699 700 702 704 706 707 708 710 710 707 705 704 701 704 717 725 723 725 730 734 739 744 748 751 754 762 774 781 783 783 784 785 790 799 801 805 814 817 817 822 827 829 827 824 824 823 827 834 837 840 843 847 853 856 856 853 847 841 833 829 830 830 828 826 826 827 822 816 813 815 819 817 814 815 815 815 816 819 820 820 819 820 819
689 690 692 693 695 698 700 701 703 705 706 707 707 705 703 705 707 702 703 718 729 729 729 730 734 739 746 751 752 752 760 769 776 780 780 782 785 789 796 802 806 813 817 817 820 826 829 826 822 821 823 828 835 837 839 844 848 852 856 858 854 846 841 835 829 830 831 830 829 828 826 820 814 813 812 813 813 810 811 813 813 815 814 813 814 816 817 817
687 689 690 692 694 697 700 701 703 704 704 705 704 702 702 705 709 706 708 722 732 732 731 730 732 737 742 746 749 751 757 764 769 775 777 779 785 789 793 800 806 813 816 814 817 822 826 825 820 820 822 826 834 837 838 844 849 850 852 855 851 844 840 837 833 832 831 833 832 829 829 820 810 812 809 806 812 812 809 811 811 812 811 810 812 813 812 812
686 688 689 691 694 697 700 702 701 700 702 704 701 702 703 705 711 709 711 725 734 736 736 733 733 736 738 743 748 751 756 764 767 770 773 775 780 787 793 797 802 811 814 814 817 822 825 823 820 821 823 825 832 837 837 840 846 848 847 846 846 842 838 836 836 835 833 833 831 830 836 825 809 810 807 803 809 809 807 810 807 806 808 811 811 808 807 808
684 686 688 691 694 697 702 701 696 697 702 700 698 705 703 703 711 710 713 727 735 738 737 730 731 733 735 742 747 750 760 769 770 769 773 775 775 779 790 797 799 805 810 813 817 820 823 822 818 820 822 826 831 835 836 836 845 850 842 837 840 839 838 836 836 837 836 835 833 834 836 830 815 804 801 805 809 806 806 807 805 804 805 806 805 802 802 803
682 684 687 690 693 697 699 695 693 697 699 693 696 704 702 703 709 709 718 729 727 729 730 727 727 728 732 740 742 747 758 766 771 773 772 774 775 776 787 796 798 802 805 810 817 818 821 823 822 820 823 829 831 833 833 833 843 848 837 833 836 837 838 837 836 838 837 835 835 835 834 834 823 804 801 812 810 804 806 804 802 802 801 801 799 797 798 798
680 682 686 689 691 692 692 692 694 693 690 690 695 701 701 703 705 711 722 723 717 720 723 723 726 727 732 739 740 745 752 756 768 776 772 772 776 777 786 794 796 801 804 806 814 818 818 822 823 821 825 830 827 825 827 828 837 839 834 834 836 838 839 837 838 839 839 838 834 833 835 836 824 806 806 814 806 799 800 798 796 795 795 794 793 792 792 793
678 681 683 686 689 689 691 694 692 687 688 692 695 698 701 703 706 717 721 713 714 719 716 721 728 730 736 740 743 749 752 755 763 771 772 772 774 777 786 792 794 803 807 806 812 818 817 817 816 818 823 825 823 823 822 824 830 831 832 834 835 839 841 842 843 840 841 844 834 828 832 833 821 804 803 810 804 798 795 791 790 788 789 789 788 788 789 791
675 678 681 685 687 688 693 692 685 686 691 693 695 698 699 703 710 718 713 706 717 722 715 720 727 728 734 741 748 752 753 757 762 767 772 773 773 778 785 791 796 803 810 810 813 815 815 814 815 817 819 820 823 826 826 827 828 829 831 832 835 839 840 844 844 840 845 844 830 825 828 830 823 804 797 800 795 791 789 787 786 784 784 785 785 786 786 788
672 675 678 682 683 686 690 684 679 688 693 692 695 696 695 705 712 708 702 702 714 723 720 722 726 727 730 736 746 750 751 759 763 766 771 772 776 780 784 791 798 807 814 815 814 816 816 817 818 817 817 819 823 827 830 831 830 832 832 834 841 846 844 846 845 846 851 840 830 837 838 834 826 805 793 792 787 785 786 783 780 778 779 781 783 785 786 787
669 672 675 678 680 683 682 676 678 688 691 691 694 691 691 704 707 698 699 704 709 719 722 718 720 724 726 732 741 745 749 757 761 762 765 770 776 778 777 782 788 800 814 817 816 817 819 818 817 817 817 817 822 829 834 834 833 836 837 840 851 855 855 855 851 850 850 838 837 846 841 830 819 801 790 789 787 785 785 783 779 776 777 778 780 783 786 787
666 670 672 674 676 677 675 676 683 686 688 691 691 690 691 694 691 689 701 710 707 712 717 713 715 718 721 732 742 743 748 755 758 760 762 766 775 777 775 777 777 782 798 809 815 818 821 820 816 817 818 814 816 824 831 832 834 838 840 845 852 856 858 858 853 851 845 837 840 845 838 825 810 795 786 782 779 779 783 784 783 782 781 779 780 784 786 786
664 666 668 670 671 671 673 679 684 683 687 690 686 688 688 682 684 689 699 710 709 708 712 713 717 721 723 732 739 739 746 756 757 758 764 768 775 779 777 778 777 776 787 802 809 811 815 816 811 810 812 810 811 815 817 823 832 836 834 839 845 844 845 847 845 841 835 834 841 842 832 817 800 789 784 782 780 781 784 786 787 788 787 786 786 786 785 784
660 662 664 666 665 667 673 678 680 681 686 687 683 684 678 674 684 690 693 707 711 710 716 715 714 723 730 735 737 735 741 753 756 758 764 765 768 771 770 773 775 775 782 795 801 803 805 806 803 804 805 805 810 812 809 817 831 834 830 835 839 833 829 837 841 838 834 832 836 835 823 807 795 785 782 785 784 779 781 783 785 785 785 787 785 780 780 781
656 657 659 660 659 663 669 673 677 680 682 682 680 678 672 673 682 684 688 699 702 705 715 718 715 722 734 739 740 737 738 747 754 759 765 765 764 766 764 766 769 768 772 781 792 799 803 805 805 805 807 806 808 810 808 812 822 829 832 831 829 825 823 833 843 846 843 833 826 825 814 802 796 785 776 779 778 773 774 777 777 777 780 784 778 773 777 780
650 652 653 651 653 658 664 669 673 677 679 679 674 669 670 677 682 683 685 691 694 697 703 710 711 713 726 737 739 737 737 746 753 756 763 766 763 761 761 762 761 761 761 765 778 787 793 805 808 803 807 809 807 807 808 808 811 821 829 824 822 827 826 829 836 839 841 833 823 822 814 801 800 791 776 774 772 768 768 768 770 773 778 777 771 771 778 779
644 648 647 642 646 654 659 666 670 673 677 676 671 670 673 679 682 683 684 686 690 693 695 701 703 702 711 721 726 728 730 739 748 750 756 761 756 751 753 756 756 758 756 756 769 777 779 798 810 803 804 811 810 809 812 811 809 813 817 815 819 829 829 829 833 832 833 830 819 819 820 810 803 792 777 772 770 764 763 764 766 768 768 769 768 772 777 777
638 643 638 631 640 649 654 663 667 670 674 671 668 673 677 679 679 679 681 682 685 687 689 692 694 699 706 708 713 721 721 726 736 740 744 748 745 741 741 745 751 756 754 751 762 771 772 789 808 805 802 808 810 809 810 811 812 814 815 814 815 819 820 822 824 822 824 824 817 814 815 807 798 788 774 768 768 763 759 760 762 763 764 767 770 771 773 775
631 635 628 623 634 644 651 662 666 665 668 664 662 673 680 678 676 677 676 676 678 682 683 684 687 694 703 707 713 719 720 724 729 732 734 736 739 740 737 739 746 752 754 754 760 769 771 781 801 807 805 808 808 804 801 803 810 814 815 817 816 814 814 814 814 814 815 817 815 814 810 796 785 780 771 762 761 759 758 760 761 763 765 768 771 772 773 775
623 627 620 617 628 639 648 658 659 658 663 663 664 675 680 674 673 678 678 674 675 676 677 681 685 689 697 704 710 715 719 726 731 731 733 733 735 738 734 733 741 748 754 759 762 765 770 778 794 805 806 804 801 799 799 798 800 806 809 812 812 811 814 818 818 815 811 812 813 812 809 790 771 771 769 760 755 757 763 766 763 764 765 767 770 772 773 775
616 617 612 613 623 634 644 652 653 653 659 664 668 672 673 669 669 675 677 677 677 676 676 680 685 691 695 697 701 708 713 720 726 727 728 728 727 730 730 732 739 745 749 756 761 762 767 778 793 803 803 801 802 806 809 803 797 801 805 805 805 807 810 814 816 813 811 815 816 814 809 786 766 769 771 764 762 765 772 774 767 764 766 766 769 771 773 775
606 607 609 613 619 628 638 646 649 653 658 662 666 668 666 663 665 670 674 676 676 675 677 681 684 689 693 695 700 707 710 717 722 721 724 728 727 727 730 732 738 744 748 753 759 760 763 775 791 802 801 800 801 804 808 807 801 799 801 801 803 804 804 805 809 809 807 806 807 811 806 781 764 771 776 773 773 773 774 776 770 764 765 768 770 770 771 774
598 604 609 613 617 623 630 633 640 653 661 661 665 669 666 661 660 664 669 670 671 670 673 678 680 683 688 692 697 701 704 713 721 722 722 726 728 728 729 731 735 740 742 744 748 752 760 772 785 799 807 808 807 806 803 803 801 797 798 802 802 801 805 808 810 811 806 798 795 800 796 776 763 768 772 771 771 765 764 772 772 766 764 767 769 769 771 774
594 602 608 612 616 619 622 624 633 650 659 659 664 669 667 663 660 658 660 664 667 666 669 675 678 682 688 693 698 702 702 706 715 721 723 724 728 730 728 729 731 733 735 738 740 746 757 768 774 785 799 804 802 797 787 786 795 798 798 802 804 803 804 805 807 809 804 798 795 792 786 772 762 760 760 760 761 758 756 764 771 769 767 767 768 768 770 773
584 593 601 609 616 619 621 624 630 642 650 652 661 668 665 663 663 660 659 663 665 665 669 676 679 684 692 695 701 707 705 705 711 717 721 722 725 729 727 725 728 731 734 737 741 746 756 764 765 767 773 774 772 771 766 770 785 791 790 793 798 801 801 802 806 804 798 799 798 789 782 776 764 756 755 755 757 759 757 759 762 763 764 765 766 768 770 772
573 582 590 597 607 615 622 627 630 635 639 639 648 660 661 659 661 664 663 663 663 663 669 675 677 682 690 691 697 703 704 707 710 712 718 721 722 728 730 727 729 732 734 738 742 746 754 762 761 760 762 760 759 762 763 767 774 779 784 788 790 794 798 800 800 794 790 796 792 782 782 781 769 759 755 752 754 759 759 758 759 761 763 766 767 768 769 770
567 575 580 583 592 605 618 627 630 632 634 633 640 651 655 657 661 661 661 664 663 660 665 675 676 676 680 681 686 697 703 708 712 712 715 719 721 727 732 733 733 732 733 741 743 742 750 757 756 759 764 762 760 762 762 765 770 775 781 785 786 790 794 794 790 786 788 789 780 775 779 777 770 763 754 751 757 760 758 760 763 765 766 767 767 766 765 767
566 574 582 582 586 598 612 622 627 629 632 634 641 648 650 656 659 655 655 661 664 658 658 667 672 670 673 676 680 691 698 700 704 705 704 708 713 718 725 730 730 728 730 737 741 739 743 751 753 759 765 765 766 766 763 765 770 775 778 780 783 787 787 786 783 783 787 785 778 780 779 772 770 765 754 754 763 766 764 764 764 762 762 764 764 763 762 765
559 566 576 584 591 597 604 616 622 626 631 633 637 643 645 649 653 653 651 652 655 656 653 656 662 665 670 673 674 677 675 669 674 683 688 697 705 709 713 714 717 724 727 730 737 740 742 749 755 760 765 770 773 772 769 768 769 773 777 778 779 780 781 780 779 782 787 783 780 786 783 774 772 768 762 761 764 765 765 762 758 759 763 764 762 761 760 761
558 560 563 574 592 601 603 611 615 619 628 629 628 634 638 640 643 646 650 648 644 646 648 651 659 667 673 674 670 667 664 664 671 680 686 693 698 700 704 706 712 724 730 732 737 740 745 754 758 760 767 773 774 776 776 773 772 776 777 774 773 774 774 774 774 778 779 776 781 786 779 770 768 767 764 761 759 761 761 756 755 757 760 761 757 754 754 755
559 563 561 564 584 599 601 608 614 616 621 621 620 625 628 632 636 638 646 651 646 643 646 651 660 669 674 674 668 664 669 676 682 688 691 695 697 699 702 705 709 718 727 734 740 743 747 754 758 761 766 772 778 778 774 775 782 778 764 759 765 768 769 770 768 767 767 770 777 775 763 759 761 760 759 756 755 759 758 754 754 754 754 757 756 752 751 751